CZ-3B DEB, 40842

Orbit data source: Space-Track

CZ-3B DEB, 40842 is space debris in HEO originally from a launch on Mon, 19 Dec 2011 UTC launched from the Xichang Space Center, China (XSC). Debris objects in space refer to the collection of defunct objects orbiting the Earth. Examples of debris include non-operational satellites, rocket bodies, and fragments generated from explosions, collisions, or faulty payload assembly.

Loading next visibility...
CZ-3B DEB details
Identifier
40842, 2011-077X
Orbit
HEO
Last TLE update1 day ago
Origin
Flag of CNCASC (CN / PRC)
ManufacturerCALT
MissionSpacecraft
Bus & MotorUnknown
MassUnknown
Launch date (UTC)
2011-12-19 (13 years ago)
Launch vehicleUnknown
Launch site
Xichang Space Center, China (XSC)
Object type
Payload
Rocket body
Debris
Shape & HBRUnknown
Radar Cross SectionMedium (>0.1 m² and <1 m²)

Expand to show TLE details & history

TLE from 1 day ago
0 CZ-3B DEB
1 40842U 11077X   24348.11300619  .00000120  00000-0  61770-2 0  9992
2 40842  21.4801 178.7809 7521404 198.2219 102.6115  1.76699002 70420
Epoch: 2024-12-13T02:42Z
Definitive object data (Epoch: 2024-12-13T02:42:43.734Z)
Latitude-0.00042°
Longitude55.75537°
Altitude37,493.62 km
Speed2.093 km/s
True Right ascension11h 54m 53s
True Declination0° 00' 02"
Sunlit
Object was in daylight at TLE epoch
Visualization TLE readout
Latitude-3.62578°
Longitude46.15977°
Altitude30,441.69 km
Speed2.803 km/s
Apparent Right ascension11h 41m 06s
Apparent Declination-9° 12' 38"
Sunlit
Object is in daylight
Visualization observer readout
Local Sidereal Time03:15:10
Azimuth72.261° E
Elevation-33.567°
Doppler factor1
Orbital elements
Apogee altitude44,267.908 km
Perigee altitude786.305 km
Semi-major axis28,905.243 km
Eccentricity0.7521404
Inclination21.4801°
RAAN178.7809°
Arg. of periapsis198.2219°
True anomaly161.74774°
Mean anomaly102.6115°
Eccentric anomaly133.74434°
Mean motion0.44165 °/min
BSTAR0.006177
Orbital period815.13 mins
Loading maneuver chart data...
Loading historical data...
Loading historical data...
Loading historical data...
Loading historical data...
Loading historical data...
Loading historical data...
Loading historical data...

CZ-3B DEB Visibility forecast

Observer location: undefined°, undefined

Span
Click to sort rows by Start time (UTC) header in descending order
Start Az.
Max El. time (UTC)
Max El. Az.
Max El.
End time (UTC)
End Az.
291 mins2024-12-14 09:57:14.125Z92.819° ESE2024-12-14 13:26:14.125Z102.425° ESE27.475°2024-12-14 14:48:14.125Z87.616° E
|